This is the latest recevied weather packets stored in our database for station/object K7NDG. If no packets are shown the sender has not sent any weather packets the latest 10 day(s).
| Time | Temp. | Humidity | Pressure | Rain* | Wind** | Luminosity | Snow |
|---|---|---|---|---|---|---|---|
| 1777941282 | 18.33° C | 68% | 1012.9 hPa | 0 mm | - | 146 W/m² | - |
| 1777940979 | 18.33° C | 68% | 1013.1 hPa | 0 mm | - | 137 W/m² | - |
| 1777940675 | 18.89° C | 67% | 1012.9 hPa | 0 mm | - | 131 W/m² | - |
| 1777940373 | 18.89° C | 67% | 1012.7 hPa | 0 mm | - | 356 W/m² | - |
| 1777940071 | 18.89° C | 66% | 1012.7 hPa | 0 mm | - | 363 W/m² | - |
| 1777939767 | 18.89° C | 66% | 1012.8 hPa | 0 mm | - | 378 W/m² | - |
| 1777939466 | 19.44° C | 64% | 1012.6 hPa | 0 mm | - | 420 W/m² | - |
| 1777939162 | 19.44° C | 66% | 1012.7 hPa | 0 mm | - | 415 W/m² | - |
| 1777938860 | 19.44° C | 65% | 1012.8 hPa | 0 mm | - | 254 W/m² | - |
| 1777938555 | 19.44° C | 66% | 1012.5 hPa | 0 mm | - | 202 W/m² | - |
| 1777938253 | 20° C | 65% | 1012.7 hPa | 0 mm | - | 190 W/m² | - |
| 1777937949 | 20° C | 64% | 1012.8 hPa | 0 mm | - | 389 W/m² | - |
| 1777937645 | 20° C | 64% | 1012.7 hPa | 0 mm | - | 502 W/m² | - |
| 1777937342 | 20.56° C | 62% | 1012.8 hPa | 0 mm | - | 530 W/m² | - |
| 1777937039 | 20.56° C | 62% | 1012.5 hPa | 0 mm | - | 548 W/m² | - |
| 1777936736 | 20.56° C | 62% | 1012.6 hPa | 0 mm | - | 591 W/m² | - |
| 1777936432 | 21.11° C | 60% | 1012.7 hPa | 0 mm | - | 593 W/m² | - |
| 1777936129 | 21.11° C | 60% | 1012.7 hPa | 0 mm | - | 592 W/m² | - |
| 1777935826 | 21.11° C | 62% | 1012.5 hPa | 0 mm | - | 615 W/m² | - |
| 1777935525 | 21.11° C | 61% | 1012.5 hPa | 0 mm | - | 643 W/m² | - |
| 1777935221 | 21.11° C | 60% | 1012.4 hPa | 0 mm | - | 653 W/m² | - |
| 1777934919 | 21.67° C | 59% | 1012.7 hPa | 0 mm | - | 667 W/m² | - |
| 1777934615 | 21.67° C | 61% | 1012.8 hPa | 0 mm | - | 664 W/m² | - |
| 1777934312 | 21.67° C | 60% | 1012.8 hPa | 0 mm | - | 659 W/m² | - |
| 1777934007 | 21.67° C | 58% | 1012.7 hPa | 0 mm | - | 667 W/m² | - |
* Rain latest hour (hover to see other rain measurements)
** Current wind speed in m/s (hover to see current wind gust speed)